This demonstration page uses our WeatherBlox Daily Observations layout. Learn more.

38.88101, -77.10428

Hourly Observations for August 7, 2018

Temp ( °F °C ) Dew Point ( °F °C ) Humidity (%) Winds ( mph kmh ) Pressure ( in mb ) Visibility ( mi km ) Precip ( " mm )
12:52 am 00:52 Partly Cloudy 78 25.6 74 23.3 87 87 SSW 6 9 30.04 1017 10 16.0934 0 0
1:52 am 01:52 Partly Cloudy 78 25.6 73 22.8 85 85 S 7 11 30.03 1017 10 16.0934 0 0
2:52 am 02:52 Mostly Cloudy 77 25 73 22.8 88 88 S 6 9 30.03 1017 10 16.0934 0 0
3:52 am 03:52 Mostly Cloudy 76 24.4 72 22.2 88 88 S 6 9 30.01 1016 10 16.0934 0 0
4:52 am 04:52 Mostly Clear 76 24.4 72 22.2 88 88 S 6 9 30.01 1016 10 16.0934 0 0
5:52 am 05:52 Partly Cloudy 75 23.9 71 21.7 88 88 Calm 30.02 1017 9 14.48406 0 0
6:52 am 06:52 Mostly Cloudy 76 24.4 73 22.8 91 91 S 7 11 30.02 1017 9 14.48406 0 0
7:52 am 07:52 Mostly Cloudy 77 25 73 22.8 88 88 S 7 11 30.02 1017 9 14.48406 0 0
8:52 am 08:52 Mostly Cloudy 78 25.6 73 22.8 85 85 S 7 11 30.02 1017 10 16.0934 0 0
9:52 am 09:52 Mostly Cloudy 81 27.2 75 23.9 82 82 SSE 6 9 30.01 1016 10 16.0934 0 0
10:52 am 10:52 Mostly Cloudy 84 28.9 75 23.9 74 74 SSE 6 9 30.01 1016 10 16.0934 0 0
11:52 am 11:52 Partly Cloudy 87 30.6 76 24.4 70 70 S 6 9 30.01 1016 10 16.0934 0 0
12:52 pm 12:52 Partly Cloudy 89 31.7 75 23.9 63 63 S 7 11 29.99 1016 10 16.0934 0 0
1:52 pm 13:52 Partly Cloudy 89 31.7 72 22.2 57 57 S 10 17 29.97 1015 10 16.0934 0 0
2:21 pm 14:21 Mostly Cloudy with Light Rain 87 30.6 73 22.8 63 63 S 10 17 29.97 1015 7 11.26538 0 0.0254
2:52 pm 14:52 Mostly Cloudy 87 30.6 74 23.3 65 65 SE 6 9 29.95 1014 10 16.0934 0.12 3.048
3:52 pm 15:52 Mostly Cloudy 89 31.7 70 21.1 53 53 SW 8 13 29.95 1014 10 16.0934 0 0
4:02 pm 16:02 Mostly Cloudy with Thunderstorms 84 28.9 72 22.2 67 67 NNW 13 20 29.94 1014 10 16.0934 0 0
4:32 pm 16:32 Partly Cloudy with Light Rain 81 27.2 72 22.2 74 74 N 6 9 29.94 1014 10 16.0934 0 0.0254
4:52 pm 16:52 Mostly Cloudy 83 28.3 71 21.7 67 67 NNE 5 7 29.93 1014 10 16.0934 0 0.0254
5:52 pm 17:52 Mostly Cloudy with Nearby Thunderstorms 83 28.3 72 22.2 70 70 N 7 11 29.95 1014 10 16.0934 0 0
6:37 pm 18:37 Mostly Cloudy with Thunderstorms 82 27.8 73 22.8 74 74 ENE 7 11 29.94 1014 10 16.0934 0 0
6:52 pm 18:52 Mostly Cloudy with Thunderstorms 82 27.8 73 22.8 74 74 ENE 5 7 29.94 1014 10 16.0934 0 0
7:42 pm 19:42 Mostly Cloudy with Nearby Thunderstorms 80 26.7 70 21.1 71 71 S 8 13 29.94 1014 10 16.0934 0 0
7:52 pm 19:52 Mostly Cloudy 80 26.7 70 21.1 71 71 S 6 9 29.94 1014 10 16.0934 0 0
8:01 pm 20:01 Mostly Cloudy with Nearby Thunderstorms 80 26.7 70 21.1 71 71 SSW 6 9 29.94 1014 10 16.0934 0 0
8:40 pm 20:40 Mostly Cloudy 79 26.1 71 21.7 77 77 SSE 6 9 29.94 1014 10 16.0934 0 0
8:52 pm 20:52 Mostly Cloudy 80 26.7 71 21.7 74 74 S 3 6 29.95 1014 10 16.0934 0 0
9:52 pm 21:52 Mostly Cloudy 79 26.1 71 21.7 77 77 S 6 9 29.96 1015 10 16.0934 0 0
10:52 pm 22:52 Partly Cloudy 78 25.6 70 21.1 76 76 S 5 7 29.96 1014 10 16.0934 0 0
11:52 pm 23:52 Partly Cloudy 78 25.6 72 22.2 82 82 Calm 29.96 1015 10 16.0934 0 0

Powered by AerisWeather